Visibility
14.4 13.3 15.0 15.0 15.0 15.0 15.0 15.0 15.0 15.0 15.0 15.0 15.0 15.0 15.0 15.0 15.0 15.0 15.0 15.0 15.0 15.0 15.0 15.0 15.0 15.0 15.0 15.0 15.0 15.0 15.0 15.0 15.0 15.0 14.6 15.0 9.9 14.9 5.7 15.0 15.0 15.0 15.0 15.0 15.0 1.2 3.8 13.9 15.0 0.8 2.7 5.6 8.2 0.1
15.0 15.0 15.0 15.0 15.0 15.0 15.0 15.0 15.0 15.0 15.0 15.0 15.0 15.0 15.0 15.0 15.0 15.0 15.0 15.0 15.0 15.0 15.0 15.0 15.0 15.0 15.0 15.0 15.0 15.0 15.0 15.0 15.0 14.3 6.3 6.2 4.8 8.3 12.9 12.6 15.0 13.4 11.7 2.0 0.6 1.8 15.0 15.0 15.0 12.3 3.3 0.0 0.1 0.0
15.0 15.0 15.0 15.0 15.0 15.0 15.0 15.0 15.0 15.0 15.0 15.0 15.0 15.0 15.0 15.0 15.0 15.0 15.0 15.0 15.0 15.0 15.0 15.0 15.0 15.0 15.0 15.0 15.0 15.0 15.0 15.0 15.0 15.0 6.0 15.0 2.8 15.0 4.4 15.0 13.0 15.0 15.0 4.8 14.8 15.0 14.5 4.9 14.0 11.9 0.1 1.5 15.0 15.0
15.0 15.0 15.0 15.0 15.0 15.0 15.0 15.0 15.0 15.0 15.0 15.0 15.0 15.0 15.0 15.0 15.0 15.0 15.0 15.0 15.0 15.0 15.0 15.0 15.0 15.0 15.0 15.0 15.0 15.0 15.0 15.0 15.0 15.0 15.0 5.7 2.9 6.3 13.3 3.3 11.6 14.9 15.0 15.0 15.0 15.0 15.0 11.2 3.9 5.4 15.0 15.0 13.3 13.9
15.0 15.0 15.0 15.0 15.0 15.0 15.0 15.0 15.0 15.0 15.0 15.0 15.0 15.0 15.0 15.0 15.0 15.0 15.0 15.0 15.0 15.0 15.0 15.0 15.0 15.0 15.0 15.0 15.0 15.0 15.0 15.0 15.0 10.3 5.6 4.2 11.7 5.5 6.2 15.0 15.0 15.0 15.0 10.6 15.0 13.4 0.9 4.8 15.0 15.0 4.1 6.8 15.0 13.4
15.0 15.0 15.0 15.0 15.0 15.0 15.0 15.0 15.0 15.0 15.0 15.0 15.0 15.0 15.0 15.0 15.0 15.0 15.0 15.0 15.0 15.0 15.0 15.0 15.0 15.0 15.0 15.0 15.0 15.0 15.0 15.0 15.0 7.8 9.7 13.0 14.9 1.0 2.5 9.6 15.0 15.0 15.0 15.0 15.0 14.9 13.1 14.1 15.0 14.8 5.9 15.0 15.0 12.2
15.0 15.0 15.0 15.0 15.0 15.0 15.0 15.0 15.0 15.0 15.0 15.0 15.0 15.0 15.0 15.0 15.0 15.0 15.0 15.0 15.0 15.0 10.7 15.0 15.0 15.0 15.0 15.0 15.0 15.0 15.0 14.2 7.6 3.0 5.6 15.0 7.9 1.6 2.8 12.9 15.0 15.0 15.0 15.0 15.0 10.3 0.1 1.7 2.7 12.6 15.0 15.0 15.0 7.1
15.0 15.0 15.0 15.0 15.0 15.0 15.0 15.0 15.0 15.0 15.0 15.0 15.0 15.0 15.0 15.0 15.0 15.0 15.0 15.0 15.0 8.1 15.0 15.0 15.0 15.0 15.0 12.4 1.8 10.7 9.1 13.1 4.3 5.2 3.4 6.2 5.3 2.1 1.8 15.0 15.0 15.0 8.1 0.0 0.0 1.0 0.0 0.0 15.0 15.0 15.0 15.0 11.7 8.1
15.0 15.0 15.0 15.0 15.0 15.0 15.0 15.0 15.0 15.0 15.0 15.0 15.0 15.0 15.0 15.0 15.0 15.0 15.0 15.0 14.8 13.2 7.3 15.0 15.0 1.7 15.0 9.0 2.4 0.0 0.1 0.2 4.6 1.1 3.7 2.6 2.8 2.4 15.0 15.0 15.0 0.8 0.3 6.4 14.7 4.3 12.1 15.0 15.0 14.6 15.0 15.0 8.7 9.3
15.0 15.0 15.0 15.0 15.0 15.0 15.0 15.0 15.0 15.0 15.0 15.0 15.0 15.0 2.7 15.0 15.0 15.0 14.7 5.9 14.7 3.9 6.9 15.0 15.0 10.8 12.1 4.6 2.8 0.4 3.0 1.4 0.5 3.9 8.5 2.3 13.6 15.0 15.0 14.9 3.7 4.0 15.0 15.0 15.0 11.7 12.9 10.7 7.6 13.8 12.4 15.0 7.7 9.0
15.0 15.0 15.0 15.0 15.0 15.0 15.0 15.0 15.0 15.0 15.0 15.0 15.0 15.0 15.0 15.0 7.4 7.3 8.9 8.2 8.5 9.9 15.0 15.0 15.0 7.3 14.6 0.5 0.8 4.5 2.5 2.6 1.4 0.2 0.8 2.3 6.2 0.0 14.9 13.4 15.0 15.0 15.0 15.0 14.9 9.6 8.9 7.5 5.4 5.0 8.6 7.5 9.3 15.0
15.0 15.0 15.0 15.0 15.0 15.0 15.0 15.0 15.0 15.0 15.0 15.0 15.0 12.9 3.5 3.7 6.6 5.1 11.1 11.5 14.0 15.0 15.0 13.2 8.5 1.7 2.6 5.1 2.0 3.1 2.3 2.5 1.6 9.7 1.3 2.6 1.2 8.3 9.4 9.0 11.5 15.0 15.0 15.0 15.0 14.6 15.0 15.0 15.0 15.0 15.0 14.8 9.4 15.0
15.0 15.0 15.0 15.0 15.0 15.0 15.0 15.0 15.0 15.0 15.0 15.0 12.6 14.3 14.2 6.9 2.1 5.0 15.0 15.0 15.0 15.0 13.4 3.6 2.6 5.5 0.0 0.1 0.5 1.3 0.3 1.3 13.3 1.0 2.7 1.4 5.3 15.0 13.3 14.1 14.0 15.0 15.0 15.0 15.0 15.0 15.0 15.0 15.0 15.0 15.0 15.0 15.0 15.0
15.0 15.0 15.0 15.0 15.0 15.0 15.0 15.0 15.0 15.0 11.7 15.0 10.6 5.0 8.1 7.9 13.5 15.0 15.0 15.0 12.9 15.0 3.1 4.0 6.2 3.8 2.7 0.7 8.9 0.5 2.7 6.9 1.6 2.9 3.3 11.7 15.0 10.5 15.0 15.0 15.0 5.6 13.8 14.4 15.0 15.0 15.0 15.0 15.0 11.0 0.2 3.9 15.0 14.7
15.0 15.0 15.0 15.0 15.0 15.0 15.0 15.0 15.0 15.0 15.0 13.0 3.7 6.6 9.6 15.0 15.0 15.0 15.0 15.0 15.0 15.0 8.1 2.3 3.1 4.8 5.2 1.7 2.0 9.2 0.8 1.3 2.6 0.6 9.3 13.1 3.6 3.0 10.8 15.0 12.1 5.3 0.2 3.0 3.5 10.1 1.0 15.0 11.5 3.5 0.3 3.4 15.0 15.0
15.0 15.0 15.0 15.0 15.0 15.0 15.0 15.0 15.0 15.0 7.5 9.7 5.2 8.9 14.5 12.7 15.0 9.1 15.0 15.0 15.0 10.4 10.5 4.0 4.6 2.3 1.7 1.3 2.6 10.7 5.3 4.9 0.4 0.3 0.1 0.0 0.2 0.3 10.6 14.1 9.7 12.0 15.0 15.0 15.0 15.0 15.0 15.0 15.0 13.5 8.6 14.4 15.0 15.0
15.0 15.0 15.0 15.0 15.0 15.0 15.0 15.0 9.8 15.0 7.0 6.3 14.8 15.0 12.0 11.4 14.3 14.7 15.0 15.0 15.0 2.6 1.0 3.1 5.3 8.1 11.1 6.2 15.0 7.1 0.3 0.1 0.1 0.9 2.3 13.2 15.0 15.0 7.9 7.2 7.5 11.9 15.0 15.0 15.0 15.0 15.0 15.0 15.0 15.0 15.0 15.0 15.0 15.0
15.0 15.0 15.0 15.0 15.0 15.0 15.0 0.6 13.2 11.4 15.0 15.0 15.0 15.0 12.3 15.0 15.0 15.0 15.0 15.0 11.5 1.6 1.8 3.0 4.5 11.2 5.4 3.3 15.0 4.1 15.0 15.0 15.0 6.4 0.0 0.2 0.2 0.6 14.7 14.2 15.0 15.0 15.0 15.0 15.0 15.0 15.0 15.0 15.0 15.0 15.0 15.0 15.0 15.0
15.0 15.0 15.0 15.0 15.0 15.0 15.0 9.6 13.6 14.0 15.0 12.0 15.0 15.0 15.0 15.0 15.0 15.0 15.0 15.0 14.0 0.3 0.0 2.3 2.7 0.7 2.9 4.4 15.0 14.9 9.8 10.0 12.5 1.7 0.7 1.8 15.0 12.7 5.1 15.0 15.0 15.0 15.0 15.0 15.0 15.0 15.0 15.0 14.7 14.2 13.8 14.1 13.1 15.0
15.0 15.0 15.0 15.0 15.0 15.0 15.0 14.6 13.2 13.5 15.0 15.0 15.0 15.0 12.6 15.0 15.0 13.4 15.0 15.0 13.4 7.9 0.6 1.5 3.2 15.0 15.0 13.7 4.0 0.2 2.5 8.9 12.2 8.9 1.3 2.7 10.4 6.2 15.0 15.0 15.0 15.0 15.0 15.0 15.0 15.0 15.0 15.0 15.0 11.2 14.6 15.0 8.2 10.8
15.0 15.0 15.0 15.0 15.0 15.0 15.0 15.0 14.9 9.3 12.3 4.9 14.9 6.2 13.5 15.0 15.0 15.0 14.3 15.0 14.6 2.1 15.0 15.0 15.0 12.1 0.9 0.5 2.6 10.4 12.6 15.0 15.0 12.2 10.8 8.4 10.7 14.7 15.0 15.0 15.0 15.0 15.0 15.0 15.0 15.0 15.0 15.0 15.0 15.0 15.0 8.2 9.2 9.7
15.0 15.0 15.0 15.0 15.0 15.0 15.0 15.0 15.0 15.0 15.0 15.0 15.0 15.0 15.0 15.0 15.0 15.0 15.0 11.9 7.8 14.4 13.3 1.0 0.5 4.9 8.9 3.4 2.6 15.0 15.0 15.0 15.0 15.0 15.0 15.0 15.0 15.0 15.0 15.0 15.0 15.0 15.0 15.0 15.0 15.0 15.0 15.0 15.0 15.0 15.0 15.0 15.0 15.0
15.0 15.0 15.0 15.0 15.0 11.4 6.9 15.0 3.4 14.0 6.8 12.1 12.3 15.0 15.0 15.0 15.0 15.0 15.0 11.6 9.2 14.8 15.0 3.7 0.9 2.5 1.9 0.6 12.9 15.0 15.0 15.0 15.0 15.0 15.0 15.0 15.0 15.0 15.0 15.0 15.0 15.0 12.2 13.7 14.2 14.2 11.3 15.0 15.0 12.6 14.7 13.9 14.6 13.3
15.0 15.0 15.0 15.0 15.0 15.0 15.0 3.8 15.0 15.0 15.0 15.0 15.0 15.0 15.0 15.0 15.0 15.0 9.0 13.8 9.3 15.0 14.8 4.2 13.4 2.8 4.2 2.6 15.0 15.0 15.0 15.0 15.0 15.0 15.0 15.0 15.0 15.0 15.0 15.0 15.0 15.0 15.0 15.0 15.0 8.8 8.4 7.5 13.7 9.1 7.5 8.6 8.3 6.9
15.0 15.0 15.0 15.0 15.0 2.4 6.5 15.0 15.0 15.0 15.0 15.0 15.0 15.0 15.0 15.0 15.0 15.0 14.6 13.0 14.7 12.5 15.0 15.0 15.0 15.0 15.0 15.0 15.0 15.0 15.0 15.0 15.0 15.0 15.0 15.0 15.0 15.0 15.0 15.0 15.0 15.0 15.0 12.8 7.3 6.2 5.2 6.7 7.2 7.1 7.2 4.0 1.8 3.0
15.0 15.0 15.0 15.0 15.0 7.9 15.0 15.0 15.0 15.0 15.0 15.0 15.0 15.0 15.0 14.5 6.9 15.0 13.5 15.0 15.0 15.0 11.5 12.5 13.7 15.0 15.0 15.0 15.0 15.0 15.0 15.0 15.0 15.0 15.0 15.0 15.0 15.0 14.0 12.6 11.7 14.2 13.8 7.0 4.7 1.3 1.6 3.5 7.6 8.9 6.9 7.2 3.0 0.9
15.0 15.0 15.0 15.0 15.0 15.0 15.0 15.0 15.0 15.0 15.0 15.0 15.0 15.0 15.0 8.0 15.0 15.0 15.0 15.0 15.0 15.0 15.0 15.0 15.0 15.0 15.0 15.0 15.0 15.0 15.0 15.0 15.0 15.0 15.0 15.0 15.0 15.0 12.7 7.2 7.0 9.7 10.1 8.1 5.0 1.2 0.4 0.6 1.8 2.0 1.7 3.4 5.1 3.2
15.0 15.0 15.0 15.0 15.0 15.0 15.0 15.0 15.0 15.0 15.0 15.0 15.0 13.2 15.0 15.0 15.0 15.0 15.0 15.0 15.0 15.0 15.0 15.0 15.0 15.0 15.0 15.0 15.0 15.0 15.0 15.0 15.0 15.0 15.0 15.0 15.0 15.0 14.7 10.6 7.4 10.1 7.6 3.9 1.7 0.7 0.4 0.4 0.6 0.8 0.6 0.6 1.6 11.0
15.0 15.0 15.0 15.0 15.0 15.0 15.0 15.0 15.0 15.0 15.0 15.0 15.0 15.0 15.0 15.0 15.0 15.0 15.0 15.0 15.0 15.0 15.0 15.0 15.0 15.0 15.0 15.0 15.0 15.0 15.0 15.0 15.0 15.0 15.0 15.0 15.0 14.7 7.6 7.5 6.3 6.5 5.3 1.2 3.9 6.2 0.7 0.2 0.3 0.2 0.3 0.4 1.1 1.2
15.0 15.0 15.0 15.0 15.0 15.0 15.0 15.0 15.0 15.0 15.0 15.0 15.0 15.0 15.0 15.0 15.0 15.0 15.0 15.0 15.0 15.0 15.0 15.0 15.0 15.0 15.0 15.0 15.0 15.0 15.0 15.0 15.0 6.3 1.0 1.9 1.9 3.7 2.3 1.6 1.7 3.0 1.9 0.9 1.0 2.6 13.4 2.3 1.1 1.3 0.4 0.3 0.3 0.2
15.0 15.0 15.0 15.0 15.0 15.0 12.3 13.1 13.5 10.8 6.0 11.9 2.9 4.8 4.8 5.1 15.0 15.0 15.0 15.0 15.0 15.0 15.0 15.0 15.0 15.0 15.0 15.0 15.0 15.0 15.0 15.0 12.2 5.0 1.9 0.7 0.8 1.1 1.5 1.7 1.9 1.2 0.8 0.6 0.6 0.8 0.8 0.9 0.6 0.4 0.3 0.2 0.1 0.1
7.2 15.0 15.0 15.0 15.0 13.1 15.0 15.0 15.0 15.0 15.0 14.8 12.7 4.8 7.5 12.5 15.0 15.0 15.0 11.0 15.0 15.0 15.0 15.0 15.0 15.0 15.0 15.0 15.0 10.2 15.0 9.3 12.8 4.7 1.6 1.4 1.8 2.4 1.5 1.6 1.2 0.9 0.8 0.9 0.8 0.7 0.5 0.4 0.3 0.3 0.2 0.2 0.1 0.1
3.9 5.7 4.8 15.0 15.0 15.0 15.0 15.0 15.0 15.0 15.0 13.4 3.8 3.7 3.8 7.8 12.4 15.0 13.5 5.0 9.7 14.0 15.0 15.0 15.0 15.0 15.0 14.9 15.0 15.0 12.7 15.0 15.0 9.4 7.2 7.6 3.5 1.5 1.4 1.6 1.5 1.4 1.0 0.9 0.9 0.6 0.5 0.4 0.3 0.3 0.3 0.3 0.2 0.2